EW6338 Weather Reports


Display with metric or nautical units.
time (UTC)temp
F
wind
direction
speed
MPH
gust
MPH
rain 1hr
in
rain 24hr
in
rain mn
in
humidity
%
barometer
mb
20181020000039 52 26 0.0 5.0 0.00 0.00 0.00 61 1012.3
20181019234600 52 105 0.0 2.0 0.00 0.00 0.00 60 1012.7
20181019233039 52 101 0.0 2.0 0.00 0.00 0.00 60 1013.1
20181019231536 52 130 0.0 3.0 0.00 0.00 0.00 60 1013.3
20181019230041 52 262 0.0 1.0 0.00 0.00 0.00 60 1013.6
20181019224542 52 123 0.0 0.0 0.00 0.00 0.00 60 1013.7
20181019223036 51 153 0.0 0.0 0.00 0.00 0.00 62 1013.5
20181019221538 51 60 0.0 0.0 0.00 0.00 0.00 65 1013.4
20181019220031 53 111 0.0 0.0 0.00 0.00 0.00 63 1013.5
20181019214535 55 94 0.0 1.0 0.00 0.00 0.00 56 1013.4
20181019213053 56 226 0.0 0.0 0.00 0.00 0.00 55 1013.5
20181019211532 57 103 0.0 1.0 0.00 0.00 0.00 52 1013.6
20181019210108 58 117 0.0 3.0 0.00 0.00 0.00 51 1013.5
20181019204547 58 158 0.0 4.0 0.00 0.00 0.00 50 1013.8
20181019203038 59 127 0.0 3.0 0.00 0.00 0.00 51 1013.7
20181019201603 59 228 0.0 6.0 0.00 0.00 0.00 48 1013.6
20181019200049 60 78 0.0 6.0 0.00 0.00 0.00 48 1013.9
20181019194518 60 47 0.0 3.0 0.00 0.00 0.00 48 1014.4
20181019193021 60 134 0.0 3.0 0.00 0.00 0.00 48 1014.4
20181019191522 60 89 0.0 3.0 0.00 0.00 0.00 49 1014.3
20181019190010 59 323 0.0 8.0 0.00 0.00 0.00 50 1014.7
20181019184506 59 27 0.0 6.0 0.00 0.00 0.00 50 1015.2
20181019183121 59 149 0.0 2.0 0.00 0.00 0.00 54 1015.5
20181019181642 57 9 0.0 6.0 0.00 0.00 0.00 51 1015.7
20181019180129 57 328 0.0 4.0 0.00 0.00 0.00 51 1016.1
20181019174613 56 285 1.0 7.0 0.00 0.00 0.00 50 1016.5
20181019173109 56 231 0.0 3.0 0.00 0.00 0.00 54 1016.7
20181019171604 55 108 0.0 5.0 0.00 0.00 0.00 51 1017.1
20181019170046 56 155 0.0 3.0 0.00 0.00 0.00 53 1017.7
20181019164613 54 330 0.0 3.0 0.00 0.00 0.00 53 1018.0
20181019163046 54 15 0.0 4.0 0.00 0.00 0.00 55 1018.4
20181019161538 53 267 1.0 6.0 0.00 0.00 0.00 55 1018.7
20181019160205 53 313 0.0 2.0 0.00 0.00 0.00 57 1019.1
20181019154523 52 234 0.0 7.0 0.00 0.00 0.00 57 1019.4
20181019153034 51 276 0.0 3.0 0.00 0.00 0.00 60 1019.6
20181019151518 50 155 0.0 4.0 0.00 0.00 0.00 61 1019.9
20181019150017 49 261 1.0 3.0 0.00 0.00 0.00 60 1020.0
20181019144519 47 8 0.0 4.0 0.00 0.00 0.00 65 1020.3
20181019143007 46 198 0.0 2.0 0.00 0.00 0.00 65 1020.6
20181019141704 44 308 0.0 4.0 0.00 0.00 0.00 68 1021.0
20181019140123 42 197 0.0 2.0 0.00 0.00 0.00 71 1021.3
20181019134640 42 212 0.0 4.0 0.00 0.00 0.00 71 1021.5
20181019133100 40 257 0.0 1.0 0.00 0.00 0.00 73 1021.7
20181019131617 39 288 0.0 3.0 0.00 0.00 0.00 76 1021.9
20181019130130 37 253 0.0 2.0 0.00 0.00 0.00 78 1022.0
20181019124720 37 226 0.0 2.0 0.00 0.00 0.00 79 1022.2
20181019123036 36 229 0.0 3.0 0.00 0.00 0.00 80 1022.3
20181019121604 35 132 0.0 2.0 0.00 0.00 0.00 81 1022.4
20181019120056 33 252 0.0 2.0 0.00 0.00 0.00 84 1022.4
20181019114549 32 248 0.0 0.0 0.00 0.00 0.00 86 1022.4
20181019113029 31 248 0.0 0.0 0.00 0.00 0.00 86 1022.3
20181019111539 31 248 0.0 0.0 0.00 0.00 0.00 88 1022.1
20181019110046 31 248 0.0 0.0 0.00 0.00 0.00 86 1022.1
20181019104542 31 248 0.0 0.0 0.00 0.00 0.00 85 1022.1
20181019103058 32 248 0.0 0.0 0.00 0.00 0.00 86 1022.2
20181019101536 32 248 0.0 0.0 0.00 0.00 0.00 85 1022.4
20181019100025 31 243 0.0 0.0 0.00 0.00 0.00 86 1022.4
20181019094524 30 200 0.0 0.0 0.00 0.00 0.00 88 1022.4
20181019093021 29 200 0.0 0.0 0.00 0.00 0.00 88 1022.6
20181019084519 29 232 0.0 1.0 0.00 0.00 0.00 90 1022.8
20181019083034 29 229 0.0 0.0 0.00 0.00 0.00 89 1022.9
20181019081554 29 230 0.0 0.0 0.00 0.00 0.00 88 1022.9
20181019080013 29 229 0.0 0.0 0.00 0.00 0.00 88 1023.0
20181019074525 28 229 0.0 0.0 0.00 0.00 0.00 87 1023.0
20181019073027 29 203 0.0 0.0 0.00 0.00 0.00 86 1023.2
20181019071519 29 203 0.0 0.0 0.00 0.00 0.00 85 1023.3
20181019070006 29 203 0.0 0.0 0.00 0.00 0.00 85 1023.3
20181019064503 29 203 0.0 0.0 0.00 0.00 0.00 85 1023.4
20181019063138 30 203 0.0 0.0 0.00 0.00 0.00 84 1023.4
20181019061635 30 203 0.0 0.0 0.00 0.00 0.00 84 1023.7
20181019060143 30 124 0.0 0.0 0.00 0.00 0.00 83 1023.7
20181019054724 30 124 0.0 0.0 0.00 0.00 0.00 82 1023.7
20181019053109 31 124 0.0 0.0 0.00 0.00 0.00 79 1023.8
20181019051634 31 124 0.0 0.0 0.00 0.00 0.00 77 1023.8
20181019050113 31 124 0.0 1.0 0.00 0.00 0.00 78 1023.5
20181019044611 31 158 0.0 0.0 0.00 0.01 0.00 78 1023.8
20181019043218 31 102 0.0 0.0 0.00 0.01 0.00 77 1023.8
20181019041633 31 114 0.0 1.0 0.00 0.01 0.00 80 1023.6
20181019040057 31 115 0.0 0.0 0.00 0.01 0.00 79 1023.8
20181019034635 30 127 0.0 0.0 0.00 0.01 0.01 79 1023.6
20181019033114 30 126 0.0 0.0 0.00 0.01 0.01 83 1023.8
20181019031615 30 127 0.0 0.0 0.00 0.01 0.01 84 1023.8
20181019030122 30 221 0.0 0.0 0.00 0.01 0.01 83 1023.9
20181019024611 31 221 0.0 0.0 0.00 0.01 0.01 81 1023.6
20181019023148 31 221 0.0 0.0 0.00 0.01 0.01 79 1023.6
20181019021628 31 226 0.0 0.0 0.00 0.01 0.01 79 1023.7
20181019020058 31 226 0.0 0.0 0.00 0.01 0.01 79 1023.7
20181019014623 31 226 0.0 0.0 0.00 0.01 0.01 78 1023.6
20181019013056 32 226 0.0 0.0 0.00 0.01 0.01 74 1023.7
20181019011629 32 226 0.0 0.0 0.00 0.01 0.01 72 1023.6
20181019010109 32 226 0.0 0.0 0.00 0.01 0.01 73 1023.5
20181019004623 33 226 0.0 0.0 0.00 0.01 0.01 70 1023.6
20181019003043 34 226 0.0 0.0 0.00 0.01 0.01 68 1023.5
20181019001555 35 323 0.0 0.0 0.00 0.01 0.01 65 1023.3